Погода в Чикаго

США     41˚52′32″N   87˚37′25″W
темп.,
°C
ветер,
м/с
пор.,
м/с
влажн.,
%
обл.,
%
осадки,
мм/ч
давл.,
гПа
погр.,
м
5 декабря, сб
сб500:00+4˚ссв776992 0.0 10201047
03:00+4˚ссв6669100 0.0 1020961
06:00+4˚с556685 0.0 10221034
09:00+3˚с557091 0.0 1023857
12:00+3˚с336695 0.0 1023856
15:00+3˚с336662 0.0 1021758
18:00+3˚св326881 0.0 1021442
21:00+3˚всв326799 0.0 1020545
6 декабря, вс
вс600:00+3˚всв216599 0.0 1020625
03:00+3˚св2265100 0.0 1019643
06:00+3˚ссв336699 0.0 1019815
09:00+3˚с446893 0.0 1019886
12:00+3˚с336693 0.0 1018894
15:00+3˚ссз336682 0.0 1017812
18:00+3˚ссв446659 0.0 1018634
21:00+3˚ссв2363100 0.0 1017907
7 декабря, пн
пн700:00+3˚ссз1162100 0.0 1017721
03:00+3˚ссз337199 0.0 1017682
06:00+3˚с226896 0.1 1018758
09:00+3˚всв336794 0.0 1020834
12:00+3˚юв327697 0.1 1019421
15:00+3˚ююв117611 0.0 1018250
18:00+3˚юв227339 0.0 1020227
21:00+4˚ю33690 0.0 1020417
8 декабря, вт
вт800:00+3˚юз33670 0.0 1020335
03:00+3˚юз33700 0.0 1020285
06:00+2˚юз44740 0.0 1020313
09:00+2˚юз44750 0.0 1021297
12:00+4˚ююз56720 0.0 1019473
15:00+5˚ююз46700 0.0 1019635
18:00+6˚ююз69731 0.0 1018596
21:00+5˚ююз7117667 0.0 1018597
9 декабря, ср
ср900:00+5˚юз7118083 0.0 1017578
03:00+4˚юз71077100 0.0 1016458
06:00+5˚юз9147494 0.0 1014466
09:00+5˚юз91373100 0.0 1014471
12:00+6˚юз7117097 0.0 1012350
15:00+8˚юз7106688 0.0 1011135
18:00+8˚зюз696748 0.0 1013111
21:00+7˚з68690 0.0 1014100